STARLINK-5714, 55614

Orbit data source: Space-Track

STARLINK-5714, 55614 is a payload satellite owned by SpaceX/Seattle (US) in LEO that was launched on Sun, 12 Feb 2023 UTC via an FALCON 9 launch vehicle from the Air Force Eastern Test Range (AFETR). Payload-class satellites include a variety of spacecraft equipped with specific instruments for various scientific and technological missions. These include communications satellites like Starlink; space stations such as the ISS; scientific satellites like the Hubble; Earth observation satellites from companies like Planet Labs, Umbra, and HawkEye 360; GPS; miniature CubeSats for education and research; and military/defense satellites.

Loading next visibility...
Identifier
55614, 2023-020AX
Orbit
LEO
Country
Flag of USUS
Related business
Manufacturer
SpaceX/Seattle
Mission
Operational Commercial Communications
Bus & Motor
STARLINK, Unknown motor
Mass
305 kg wet, ~290 kg dry
Launch date (UTC)
2023-02-12 (3 years ago)
Launch vehicle
FALCON 9
Launch site
Air Force Eastern Test Range (AFETR)
Object type
Payload
Rocket body
Debris
Shape & HBR
Box + 1 Pan, 10.1 m
Radar Cross Section
13.562 m², Large (>1 m²)

Expand to show TLE details & history
Last TLE update: 17 hours ago

TLE from 17 hours ago
0 STARLINK-5714
1 55614U 23020AX  25340.45548445  .00000640  00000-0  62475-4 0  9999
2 55614  43.0036 125.2856 0001478 261.9455  98.1220 15.02529169155193
Epoch: 2025-12-06T10:55Z
TLE epoch observation values (Epoch: 2025-12-06T10:55:53.856Z)
Latitude
Longitude
-114.17177°
Altitude
559.024 km
Speed
7.584 km/s
True Right ascension
08h 21m 08s
True Declination
0° 00' 00"
Sunlit
Object was in full shadow at epoch
Visualization orbit readout
Latitude
Unknown
Longitude
Unknown
Altitude
Unknown
Speed
Unknown
Apparent Right ascension
Unknown
Apparent Declination
Unknown
Sunlit
N/A
Visualization observer readout
Local Sidereal Time
02:04:56
Azimuth
Unknown
Elevation
Unknown
Doppler factor
Unknown
Orbital elements
Apogee altitude
562.05 km
Perigee altitude
559.998 km
Semi-major axis
6,939.161 km
Eccentricity
0.00015
Inclination
43.0036°
RAAN
125.2856°
Arg. of periapsis
261.9455°
True anomaly
98.13877°
Mean anomaly
98.122°
Eccentric anomaly
98.13038°
Mean motion
3.75476 °/min
Orbital period
95.88 mins
BSTAR
0.000062475
Loading maneuver chart data...
Computing Atmospheric mass density...
Loading historical data...
Loading historical data...
Loading historical data...
Loading historical data...
Loading historical data...
Loading historical data...
Loading historical data...

Documentation

Showing up to 5 results
|